This is the latest recevied weather packets stored in our database for station/object DG4MND-4. If no packets are shown the sender has not sent any weather packets the latest 10 day(s).
| Time | Temp. | Humidity | Pressure | Rain* | Wind** | Luminosity | Snow |
|---|---|---|---|---|---|---|---|
| 1777666239 | 12.78° C | 53% | 1023.8 hPa | 0 mm | - | - | - |
| 1777665638 | 13.33° C | 52% | 1023.7 hPa | 0 mm | - | - | - |
| 1777665035 | 13.33° C | 52% | 1023.7 hPa | 0 mm | - | - | - |
| 1777664428 | 13.33° C | 53% | 1023.5 hPa | 0 mm | - | - | - |
| 1777663825 | 13.33° C | 52% | 1023.4 hPa | 0 mm | - | - | - |
| 1777663222 | 13.89° C | 50% | 1023.4 hPa | 0 mm | - | - | - |
| 1777662621 | 15° C | 48% | 1023.4 hPa | 0 mm | - | - | - |
| 1777662079 | 15.56° C | 46% | 1023.3 hPa | 0 mm | - | - | - |
| 1777661471 | 15.56° C | 45% | 1023.4 hPa | 0 mm | - | - | - |
| 1777660871 | 16.11° C | 44% | 1023.2 hPa | 0 mm | - | - | - |
| 1777660268 | 16.67° C | 43% | 1023.2 hPa | 0 mm | - | - | - |
| 1777659666 | 16.67° C | 42% | 1023.1 hPa | 0 mm | - | - | - |
| 1777659061 | 17.22° C | 40% | 1023.1 hPa | 0 mm | - | - | - |
| 1777658455 | 17.78° C | 39% | 1023 hPa | 0 mm | - | - | - |
| 1777657852 | 17.78° C | 38% | 1023.1 hPa | 0 mm | - | - | - |
| 1777657248 | 18.33° C | 37% | 1023.1 hPa | 0 mm | - | - | - |
| 1777656645 | 18.33° C | 37% | 1023 hPa | 0 mm | - | - | - |
| 1777656045 | 18.89° C | 36% | 1023 hPa | 0 mm | - | - | - |
| 1777655438 | 18.89° C | 36% | 1022.9 hPa | 0 mm | - | - | - |
| 1777654835 | 19.44° C | 36% | 1022.9 hPa | 0 mm | - | - | - |
| 1777654234 | 20° C | 34% | 1023 hPa | 0 mm | - | - | - |
| 1777653628 | 20° C | 34% | 1023 hPa | 0 mm | - | - | - |
| 1777653027 | 21.11° C | 34% | 1023 hPa | 0 mm | - | - | - |
| 1777652424 | 20.56° C | 32% | 1023.1 hPa | 0 mm | - | - | - |
| 1777651817 | 21.11° C | 31% | 1023 hPa | 0 mm | - | - | - |
* Rain latest hour (hover to see other rain measurements)
** Current wind speed in m/s (hover to see current wind gust speed)